Tracking 31027 objects as of 19-Jul-2025
HD Live streaming from Space Station
objects crossing your sky now

STARLINK-11490

Track STARLINK-11490 now!
10-day predictions
STARLINK-11490 is classified as:


NORAD ID: 62219
Int'l Code: 2024-231B
Perigee: 366.0 km
Apogee: 367.5 km
Inclination: 53.2 °
Period: 91.7 minutes
Semi major axis: 6737 km
RCS: Unknown
Launch date: December 5, 2024
Source: United States (US)
Launch site: AIR FORCE WESTERN TEST RANGE (AFWTR)
Your satellite tracking list
ATLAS 5 CENTAUR DEB
Track 1 satellite(s)




NASA's NSSDC Master Catalog

Two Line Element Set (TLE):
1 62219U 24231B   25199.66076630  .00194372  00000-0  15691-2 0  9992
2 62219  53.1571 175.0163 0001172  91.8006 268.3147 15.69753198 36668
Source of the keplerian elements: AFSPC